| time (UTC) | temp F | wind direction | speed MPH | gust MPH | rain 1hr in | rain 24hr in | rain mn in | humidity % | barometer mb |
| 20260902092328 | 83 | 161 | 0.0 | 0.0 | 0.00 | 0.00 | 0.00 | 100 | 1015.1 |
| 20260902091822 | 83 | 161 | 0.0 | 0.0 | 0.00 | 0.00 | 0.00 | 100 | 1015.1 |
| 20260902091557 | 83 | 161 | 0.0 | 0.0 | 0.00 | 0.00 | 0.00 | 100 | 1015.1 |
| 20260902090817 | 83 | 161 | 0.0 | 0.0 | 0.00 | 0.00 | 0.00 | 100 | 1015.0 |
| 20260902090308 | 83 | 161 | 0.0 | 0.0 | 0.00 | 0.00 | 0.00 | 100 | 1015.0 |
| 20260902085759 | 83 | 161 | 0.0 | 0.0 | 0.00 | 0.00 | 0.00 | 100 | 1015.0 |
| 20260902085256 | 83 | 161 | 0.0 | 0.0 | 0.00 | 0.00 | 0.00 | 100 | 1015.1 |
| 20260902084739 | 83 | 161 | 0.0 | 0.0 | 0.00 | 0.00 | 0.00 | 100 | 1015.0 |
| 20260902084452 | 83 | 161 | 0.0 | 0.0 | 0.00 | 0.00 | 0.00 | 100 | 1015.0 |
| 20260902083720 | 83 | 161 | 0.0 | 0.0 | 0.00 | 0.00 | 0.00 | 100 | 1015.0 |
| 20260902083153 | 83 | 161 | 0.0 | 0.0 | 0.00 | 0.00 | 0.00 | 100 | 1014.9 |
| 20260902082619 | 83 | 161 | 0.0 | 0.0 | 0.00 | 0.00 | 0.00 | 100 | 1014.9 |
| 20260902082338 | 83 | 161 | 0.0 | 0.0 | 0.00 | 0.00 | 0.00 | 100 | 1014.9 |
| 20260902081600 | 83 | 161 | 0.0 | 0.0 | 0.00 | 0.00 | 0.00 | 100 | 1014.9 |
| 20260902081020 | 83 | 161 | 0.0 | 1.0 | 0.00 | 0.00 | 0.00 | 100 | 1014.8 |
| 20260902080509 | 84 | 161 | 0.0 | 4.0 | 0.00 | 0.00 | 0.00 | 100 | 1014.8 |
| 20260902080004 | 84 | 161 | 0.0 | 4.0 | 0.00 | 0.00 | 0.00 | 100 | 1014.9 |
| 20260902075705 | 84 | 161 | 0.0 | 4.0 | 0.00 | 0.00 | 0.00 | 100 | 1014.8 |
| 20260902074935 | 84 | 161 | 0.0 | 4.0 | 0.00 | 0.00 | 0.00 | 100 | 1014.8 |
| 20260902074426 | 84 | 161 | 0.0 | 6.0 | 0.00 | 0.00 | 0.00 | 100 | 1014.7 |
| 20260902073923 | 84 | 161 | 0.0 | 6.0 | 0.00 | 0.00 | 0.00 | 100 | 1014.8 |
| 20260902073415 | 84 | 161 | 0.0 | 6.0 | 0.00 | 0.00 | 0.00 | 100 | 1014.7 |
| 20260902072854 | 84 | 161 | 0.0 | 6.0 | 0.00 | 0.00 | 0.00 | 100 | 1014.8 |
| 20260902072341 | 84 | 162 | 0.0 | 6.0 | 0.00 | 0.00 | 0.00 | 100 | 1014.7 |
| 20260902071841 | 84 | 162 | 0.0 | 3.0 | 0.00 | 0.00 | 0.00 | 100 | 1014.8 |
| 20260902071342 | 84 | 163 | 1.0 | 9.0 | 0.00 | 0.00 | 0.00 | 100 | 1014.5 |
| 20260902070836 | 84 | 163 | 1.0 | 9.0 | 0.00 | 0.00 | 0.00 | 100 | 1014.5 |
| 20260902070342 | 84 | 198 | 0.0 | 5.0 | 0.00 | 0.00 | 0.00 | 100 | 1014.6 |
| 20260902065816 | 84 | 198 | 0.0 | 2.0 | 0.00 | 0.00 | 0.00 | 100 | 1014.8 |
| 20260902065325 | 84 | 201 | 0.0 | 4.0 | 0.00 | 0.00 | 0.00 | 100 | 1014.7 |
| 20260902064808 | 84 | 201 | 0.0 | 4.0 | 0.00 | 0.00 | 0.00 | 100 | 1014.7 |
| 20260902064257 | 84 | 227 | 0.0 | 3.0 | 0.00 | 0.00 | 0.00 | 100 | 1014.7 |
| 20260902063749 | 84 | 227 | 0.0 | 0.0 | 0.00 | 0.00 | 0.00 | 100 | 1014.6 |
| 20260902063250 | 84 | 227 | 0.0 | 0.0 | 0.00 | 0.00 | 0.00 | 100 | 1014.6 |
| 20260902062739 | 84 | 227 | 0.0 | 0.0 | 0.00 | 0.00 | 0.00 | 100 | 1014.5 |
| 20260902062215 | 84 | 227 | 0.0 | 0.0 | 0.00 | 0.00 | 0.00 | 100 | 1014.6 |
| 20260902061707 | 84 | 227 | 0.0 | 0.0 | 0.00 | 0.00 | 0.00 | 100 | 1014.6 |
| 20260902061208 | 85 | 227 | 0.0 | 0.0 | 0.00 | 0.00 | 0.00 | 100 | 1014.6 |
| 20260902060936 | 85 | 227 | 0.0 | 0.0 | 0.00 | 0.00 | 0.00 | 100 | 1014.6 |
| 20260902060158 | 85 | 227 | 0.0 | 0.0 | 0.00 | 0.00 | 0.00 | 100 | 1014.5 |
| 20260902055701 | 85 | 227 | 0.0 | 0.0 | 0.00 | 0.00 | 0.00 | 100 | 1014.4 |
| 20260902055133 | 85 | 227 | 0.0 | 0.0 | 0.00 | 0.00 | 0.00 | 100 | 1014.5 |
| 20260902055053 | 85 | 227 | 0.0 | 0.0 | 0.00 | 0.00 | 0.00 | 100 | 1014.4 |
| 20260902054108 | 85 | 227 | 0.0 | 0.0 | 0.00 | 0.00 | 0.00 | 100 | 1014.3 |
| 20260902053552 | 85 | 227 | 0.0 | 0.0 | 0.00 | 0.00 | 0.00 | 100 | 1014.5 |
| 20260902053041 | 85 | 227 | 0.0 | 0.0 | 0.00 | 0.00 | 0.00 | 100 | 1014.5 |
| 20260902052521 | 85 | 227 | 0.0 | 0.0 | 0.00 | 0.00 | 0.00 | 100 | 1014.3 |
| 20260902052253 | 85 | 227 | 0.0 | 0.0 | 0.00 | 0.00 | 0.00 | 100 | 1014.3 |
| 20260902051503 | 85 | 227 | 0.0 | 0.0 | 0.00 | 0.00 | 0.00 | 100 | 1014.3 |
| 20260902050955 | 85 | 227 | 0.0 | 0.0 | 0.00 | 0.00 | 0.00 | 100 | 1014.3 |
| 20260902050451 | 85 | 227 | 0.0 | 0.0 | 0.00 | 0.00 | 0.00 | 100 | 1014.3 |
| 20260902045938 | 85 | 227 | 0.0 | 0.0 | 0.00 | 0.00 | 0.00 | 100 | 1014.2 |
| 20260902045426 | 85 | 227 | 0.0 | 0.0 | 0.00 | 0.00 | 0.00 | 100 | 1014.3 |
| 20260902044925 | 85 | 227 | 0.0 | 0.0 | 0.00 | 0.00 | 0.00 | 100 | 1014.2 |
| 20260902044416 | 85 | 227 | 0.0 | 0.0 | 0.00 | 0.00 | 0.00 | 100 | 1014.3 |
| 20260902043913 | 85 | 227 | 0.0 | 1.0 | 0.00 | 0.00 | 0.00 | 100 | 1014.3 |
| 20260902043359 | 85 | 227 | 0.0 | 1.0 | 0.00 | 0.00 | 0.00 | 100 | 1014.2 |
| 20260902042859 | 85 | 227 | 0.0 | 0.0 | 0.00 | 0.00 | 0.00 | 100 | 1014.2 |
| 20260902042345 | 85 | 227 | 0.0 | 0.0 | 0.00 | 0.00 | 0.00 | 100 | 1014.2 |
| 20260902042104 | 85 | 227 | 0.0 | 0.0 | 0.00 | 0.00 | 0.00 | 100 | 1014.3 |
| 20260902041338 | 85 | 227 | 0.0 | 0.0 | 0.00 | 0.00 | 0.00 | 100 | 1014.3 |
| 20260902040833 | 85 | 227 | 0.0 | 0.0 | 0.00 | 0.00 | 0.00 | 100 | 1014.4 |
| 20260902040303 | 85 | 227 | 0.0 | 0.0 | 0.00 | 0.00 | 0.00 | 100 | 1014.3 |
| 20260902035750 | 85 | 227 | 0.0 | 0.0 | 0.00 | 0.00 | 0.00 | 100 | 1014.2 |
| 20260902035226 | 86 | 227 | 0.0 | 0.0 | 0.00 | 0.00 | 0.00 | 100 | 1014.2 |
| 20260902034716 | 86 | 227 | 0.0 | 0.0 | 0.00 | 0.00 | 0.00 | 100 | 1014.0 |
| 20260902034209 | 86 | 227 | 0.0 | 0.0 | 0.00 | 0.00 | 0.00 | 100 | 1013.8 |
| 20260902033706 | 86 | 227 | 0.0 | 0.0 | 0.00 | 0.00 | 0.00 | 100 | 1013.7 |
| 20260902033154 | 86 | 227 | 0.0 | 0.0 | 0.00 | 0.00 | 0.00 | 100 | 1013.7 |
| 20260902033139 | 86 | 227 | 0.0 | 0.0 | 0.00 | 0.00 | 0.00 | 100 | 1013.7 |
| 20260902032142 | 86 | 227 | 0.0 | 0.0 | 0.00 | 0.00 | 0.00 | 100 | 1013.6 |
| 20260902031640 | 86 | 227 | 0.0 | 0.0 | 0.00 | 0.00 | 0.00 | 100 | 1013.6 |
| 20260902031125 | 86 | 227 | 0.0 | 0.0 | 0.00 | 0.00 | 0.00 | 100 | 1013.4 |
| 20260902030622 | 86 | 227 | 0.0 | 0.0 | 0.00 | 0.00 | 0.00 | 100 | 1013.4 |
| 20260902030123 | 86 | 227 | 0.0 | 0.0 | 0.00 | 0.00 | 0.00 | 100 | 1013.4 |
| 20260902025614 | 86 | 227 | 0.0 | 0.0 | 0.00 | 0.00 | 0.00 | 100 | 1013.4 |
| 20260902025112 | 86 | 227 | 0.0 | 0.0 | 0.00 | 0.00 | 0.00 | 100 | 1013.3 |
| 20260902024556 | 86 | 227 | 0.0 | 0.0 | 0.00 | 0.00 | 0.00 | 100 | 1013.4 |
| 20260902024026 | 86 | 227 | 0.0 | 0.0 | 0.00 | 0.00 | 0.00 | 100 | 1013.4 |
| 20260902023520 | 86 | 227 | 0.0 | 0.0 | 0.00 | 0.00 | 0.00 | 100 | 1013.4 |
| 20260902023447 | 86 | 227 | 0.0 | 0.0 | 0.00 | 0.00 | 0.00 | 100 | 1013.6 |
| 20260902022436 | 86 | 227 | 0.0 | 0.0 | 0.00 | 0.00 | 0.00 | 100 | 1013.5 |
| 20260902021933 | 86 | 227 | 0.0 | 0.0 | 0.00 | 0.00 | 0.00 | 100 | 1013.6 |
| 20260902021430 | 86 | 227 | 0.0 | 0.0 | 0.00 | 0.00 | 0.00 | 100 | 1013.6 |
| 20260902020928 | 86 | 227 | 0.0 | 0.0 | 0.00 | 0.00 | 0.00 | 100 | 1013.5 |
| 20260902020415 | 86 | 227 | 0.0 | 0.0 | 0.00 | 0.00 | 0.00 | 100 | 1013.5 |
| 20260902015909 | 86 | 227 | 0.0 | 0.0 | 0.00 | 0.00 | 0.00 | 100 | 1013.4 |
| 20260902015356 | 86 | 227 | 0.0 | 0.0 | 0.00 | 0.00 | 0.00 | 100 | 1013.3 |
| 20260902015111 | 86 | 227 | 0.0 | 0.0 | 0.00 | 0.00 | 0.00 | 100 | 1013.4 |
| 20260902014521 | 85 | 227 | 0.0 | 0.0 | 0.00 | 0.00 | 0.00 | 100 | 1013.2 |
| 20260902014407 | 86 | 227 | 0.0 | 0.0 | 0.00 | 0.00 | 0.00 | 100 | 1013.2 |
| 20260902013259 | 85 | 227 | 0.0 | 0.0 | 0.00 | 0.00 | 0.00 | 100 | 1013.2 |
| 20260902012802 | 85 | 227 | 0.0 | 0.0 | 0.00 | 0.00 | 0.00 | 100 | 1013.2 |
| 20260902012259 | 85 | 228 | 0.0 | 0.0 | 0.00 | 0.00 | 0.00 | 100 | 1013.2 |
| 20260902011804 | 85 | 227 | 0.0 | 0.0 | 0.00 | 0.00 | 0.00 | 100 | 1013.1 |
| 20260902011247 | 85 | 227 | 0.0 | 0.0 | 0.00 | 0.00 | 0.00 | 100 | 1013.1 |
| 20260902011014 | 85 | 228 | 0.0 | 0.0 | 0.00 | 0.00 | 0.00 | 100 | 1013.0 |
| 20260902010739 | 85 | 228 | 0.0 | 0.0 | 0.00 | 0.00 | 0.00 | 100 | 1013.0 |
| 20260902005720 | 85 | 228 | 0.0 | 0.0 | 0.00 | 0.00 | 0.00 | 100 | 1013.0 |
| 20260902005221 | 85 | 228 | 0.0 | 0.0 | 0.00 | 0.00 | 0.00 | 100 | 1012.8 |
| 20260902004709 | 85 | 228 | 0.0 | 0.0 | 0.00 | 0.00 | 0.00 | 100 | 1012.7 |
| 20260902004157 | 84 | 228 | 0.0 | 1.0 | 0.00 | 0.00 | 0.00 | 100 | 1012.5 |
| 20260902003650 | 84 | 228 | 0.0 | 1.0 | 0.00 | 0.00 | 0.00 | 100 | 1012.3 |
| 20260902003142 | 85 | 228 | 0.0 | 0.0 | 0.00 | 0.00 | 0.00 | 100 | 1012.1 |
| 20260902002855 | 85 | 228 | 0.0 | 0.0 | 0.00 | 0.00 | 0.00 | 100 | 1012.2 |
| 20260902002123 | 85 | 228 | 0.0 | 0.0 | 0.00 | 0.00 | 0.00 | 100 | 1012.2 |
| 20260902001622 | 85 | 228 | 0.0 | 0.0 | 0.00 | 0.00 | 0.00 | 100 | 1012.2 |
| 20260902001111 | 85 | 228 | 0.0 | 0.0 | 0.00 | 0.00 | 0.00 | 100 | 1012.3 |
| 20260902000827 | 85 | 228 | 0.0 | 0.0 | 0.00 | 0.00 | 0.00 | 100 | 1012.3 |
| 20260902000112 | 85 | 228 | 0.0 | 0.0 | 0.00 | 0.00 | 0.00 | 100 | 1012.3 |
| 20260901235547 | 86 | 228 | 0.0 | 0.0 | 0.00 | 0.00 | 0.00 | 100 | 1012.2 |
| 20260901235037 | 86 | 228 | 0.0 | 0.0 | 0.00 | 0.00 | 0.00 | 100 | 1012.3 |
| 20260901234532 | 86 | 228 | 0.0 | 0.0 | 0.00 | 0.00 | 0.00 | 100 | 1012.2 |
| 20260901234039 | 86 | 228 | 0.0 | 0.0 | 0.00 | 0.00 | 0.00 | 100 | 1012.3 |
| 20260901233520 | 86 | 228 | 0.0 | 0.0 | 0.00 | 0.00 | 0.00 | 100 | 1012.5 |
| 20260901233008 | 87 | 228 | 0.0 | 0.0 | 0.00 | 0.00 | 0.00 | 100 | 1012.4 |
| 20260901232521 | 87 | 228 | 0.0 | 0.0 | 0.00 | 0.00 | 0.00 | 100 | 1012.5 |
| 20260901231952 | 87 | 228 | 0.0 | 0.0 | 0.00 | 0.00 | 0.00 | 100 | 1012.5 |
| 20260901231447 | 87 | 228 | 0.0 | 0.0 | 0.00 | 0.00 | 0.00 | 100 | 1012.5 |
| 20260901230943 | 88 | 228 | 0.0 | 0.0 | 0.00 | 0.00 | 0.00 | 100 | 1012.5 |
| 20260901230434 | 88 | 228 | 0.0 | 0.0 | 0.00 | 0.00 | 0.00 | 100 | 1012.6 |
| 20260901225924 | 89 | 228 | 0.0 | 0.0 | 0.00 | 0.00 | 0.00 | 100 | 1012.5 |
| 20260901225410 | 89 | 228 | 0.0 | 0.0 | 0.00 | 0.00 | 0.00 | 1 | 1012.6 |
| 20260901224909 | 89 | 228 | 0.0 | 0.0 | 0.00 | 0.00 | 0.00 | 1 | 1012.7 |
| 20260901224402 | 90 | 228 | 0.0 | 0.0 | 0.00 | 0.00 | 0.00 | 4 | 1012.7 |
| 20260901223904 | 90 | 228 | 0.0 | 0.0 | 0.00 | 0.00 | 0.00 | 4 | 1012.8 |
| 20260901223354 | 90 | 228 | 0.0 | 0.0 | 0.00 | 0.00 | 0.00 | 4 | 1012.8 |
| 20260901222853 | 91 | 228 | 0.0 | 0.0 | 0.00 | 0.00 | 0.00 | 6 | 1012.7 |
| 20260901222326 | 91 | 228 | 0.0 | 0.0 | 0.00 | 0.00 | 0.00 | 7 | 1012.8 |
| 20260901221823 | 91 | 228 | 0.0 | 0.0 | 0.00 | 0.00 | 0.00 | 7 | 1012.7 |
| 20260901221328 | 92 | 228 | 0.0 | 0.0 | 0.00 | 0.00 | 0.00 | 7 | 1012.7 |
| 20260901220808 | 92 | 228 | 0.0 | 0.0 | 0.00 | 0.00 | 0.00 | 7 | 1012.8 |
| 20260901220259 | 92 | 228 | 0.0 | 0.0 | 0.00 | 0.00 | 0.00 | 8 | 1012.8 |
| 20260901215756 | 93 | 228 | 0.0 | 0.0 | 0.00 | 0.00 | 0.00 | 8 | 1012.8 |
| 20260901215256 | 93 | 228 | 0.0 | 0.0 | 0.00 | 0.00 | 0.00 | 8 | 1012.9 |
| 20260901215246 | 93 | 228 | 0.0 | 0.0 | 0.00 | 0.00 | 0.00 | 8 | 1012.9 |
| 20260901214232 | 93 | 228 | 0.0 | 0.0 | 0.00 | 0.00 | 0.00 | 7 | 1013.0 |
| 20260901213725 | 94 | 228 | 0.0 | 0.0 | 0.00 | 0.00 | 0.00 | 6 | 1013.1 |
| 20260901213220 | 94 | 228 | 0.0 | 0.0 | 0.00 | 0.00 | 0.00 | 5 | 1013.1 |
| 20260901212722 | 94 | 228 | 0.0 | 0.0 | 0.00 | 0.00 | 0.00 | 5 | 1013.1 |
| 20260901212208 | 94 | 228 | 0.0 | 0.0 | 0.00 | 0.00 | 0.00 | 5 | 1013.1 |
| 20260901211710 | 94 | 228 | 0.0 | 0.0 | 0.00 | 0.00 | 0.00 | 5 | 1013.1 |
| 20260901211209 | 93 | 228 | 0.0 | 0.0 | 0.00 | 0.00 | 0.00 | 5 | 1013.1 |
| 20260901210705 | 93 | 228 | 0.0 | 0.0 | 0.00 | 0.00 | 0.00 | 6 | 1013.2 |
| 20260901210159 | 93 | 228 | 0.0 | 0.0 | 0.00 | 0.00 | 0.00 | 5 | 1013.1 |
| 20260901205657 | 93 | 228 | 0.0 | 0.0 | 0.00 | 0.00 | 0.00 | 5 | 1013.2 |
| 20260901205421 | 93 | 228 | 0.0 | 0.0 | 0.00 | 0.00 | 0.00 | 4 | 1013.2 |
| 20260901204659 | 92 | 228 | 0.0 | 0.0 | 0.00 | 0.00 | 0.00 | 4 | 1013.2 |
| 20260901204154 | 92 | 228 | 0.0 | 0.0 | 0.00 | 0.00 | 0.00 | 4 | 1013.2 |
| 20260901203639 | 92 | 228 | 0.0 | 0.0 | 0.00 | 0.00 | 0.00 | 4 | 1013.2 |
| 20260901203139 | 92 | 228 | 0.0 | 0.0 | 0.00 | 0.00 | 0.00 | 4 | 1013.3 |
| 20260901202631 | 91 | 228 | 0.0 | 0.0 | 0.00 | 0.00 | 0.00 | 4 | 1013.3 |
| 20260901202125 | 91 | 228 | 0.0 | 0.0 | 0.00 | 0.00 | 0.00 | 3 | 1013.2 |
| 20260901201624 | 91 | 228 | 0.0 | 0.0 | 0.00 | 0.00 | 0.00 | 3 | 1013.3 |
| 20260901201116 | 91 | 228 | 0.0 | 0.0 | 0.00 | 0.00 | 0.00 | 3 | 1013.4 |
| 20260901200613 | 90 | 228 | 0.0 | 0.0 | 0.00 | 0.00 | 0.00 | 4 | 1013.6 |
| 20260901200346 | 91 | 228 | 0.0 | 0.0 | 0.00 | 0.00 | 0.00 | 5 | 1013.6 |
| 20260901195835 | 91 | 228 | 0.0 | 0.0 | 0.00 | 0.00 | 0.00 | 6 | 1013.7 |
| 20260901195105 | 91 | 228 | 0.0 | 0.0 | 0.00 | 0.00 | 0.00 | 6 | 1013.7 |
| 20260901194602 | 92 | 228 | 0.0 | 0.0 | 0.00 | 0.00 | 0.00 | 8 | 1013.8 |
| 20260901194048 | 92 | 228 | 0.0 | 0.0 | 0.00 | 0.00 | 0.00 | 10 | 1013.9 |
| 20260901193545 | 92 | 228 | 0.0 | 0.0 | 0.00 | 0.00 | 0.00 | 11 | 1013.9 |
| 20260901193035 | 93 | 228 | 0.0 | 0.0 | 0.00 | 0.00 | 0.00 | 11 | 1013.9 |
| 20260901192533 | 93 | 228 | 0.0 | 0.0 | 0.00 | 0.00 | 0.00 | 11 | 1013.9 |
| 20260901192022 | 93 | 228 | 0.0 | 2.0 | 0.00 | 0.00 | 0.00 | 11 | 1013.7 |
| 20260901191509 | 93 | 228 | 0.0 | 2.0 | 0.00 | 0.00 | 0.00 | 10 | 1013.8 |
| 20260901191013 | 93 | 228 | 0.0 | 1.0 | 0.00 | 0.00 | 0.00 | 10 | 1013.8 |
| 20260901190441 | 93 | 228 | 0.0 | 0.0 | 0.00 | 0.00 | 0.00 | 10 | 1013.9 |
| 20260901185936 | 93 | 228 | 0.0 | 0.0 | 0.00 | 0.00 | 0.00 | 11 | 1013.8 |
| 20260901185437 | 93 | 228 | 0.0 | 3.0 | 0.00 | 0.00 | 0.00 | 10 | 1013.9 |
| 20260901184927 | 93 | 228 | 0.0 | 3.0 | 0.00 | 0.00 | 0.00 | 12 | 1013.9 |
| 20260901184654 | 93 | 228 | 0.0 | 0.0 | 0.00 | 0.00 | 0.00 | 11 | 1014.1 |
| 20260901183919 | 94 | 228 | 0.0 | 0.0 | 0.00 | 0.00 | 0.00 | 10 | 1014.1 |
| 20260901183418 | 94 | 228 | 0.0 | 3.0 | 0.00 | 0.00 | 0.00 | 11 | 1014.1 |
| 20260901182913 | 94 | 228 | 0.0 | 3.0 | 0.00 | 0.00 | 0.00 | 11 | 1014.0 |
| 20260901182636 | 94 | 228 | 0.0 | 3.0 | 0.00 | 0.00 | 0.00 | 10 | 1014.0 |
| 20260901181902 | 94 | 228 | 0.0 | 6.0 | 0.00 | 0.00 | 0.00 | 9 | 1013.9 |
| 20260901181400 | 94 | 228 | 1.0 | 6.0 | 0.00 | 0.00 | 0.00 | 10 | 1014.0 |
| 20260901180858 | 94 | 228 | 0.0 | 5.0 | 0.00 | 0.00 | 0.00 | 9 | 1014.0 |
| 20260901180355 | 94 | 228 | 0.0 | 3.0 | 0.00 | 0.00 | 0.00 | 8 | 1014.1 |
| 20260901175858 | 93 | 228 | 1.0 | 4.0 | 0.00 | 0.00 | 0.00 | 8 | 1014.2 |
| 20260901175351 | 93 | 228 | 1.0 | 5.0 | 0.00 | 0.00 | 0.00 | 7 | 1014.3 |
| 20260901174844 | 93 | 228 | 1.0 | 5.0 | 0.00 | 0.00 | 0.00 | 5 | 1014.3 |
| 20260901174341 | 93 | 228 | 1.0 | 5.0 | 0.00 | 0.00 | 0.00 | 5 | 1014.2 |
| 20260901173851 | 93 | 228 | 1.0 | 5.0 | 0.00 | 0.00 | 0.00 | 4 | 1014.2 |
| 20260901173618 | 93 | 227 | 1.0 | 7.0 | 0.00 | 0.00 | 0.00 | 3 | 1014.2 |
| 20260901172841 | 92 | 227 | 1.0 | 7.0 | 0.00 | 0.00 | 0.00 | 1 | 1014.1 |
| 20260901172332 | 92 | 229 | 0.0 | 3.0 | 0.00 | 0.00 | 0.00 | 100 | 1014.1 |
| 20260901171829 | 92 | 229 | 0.0 | 5.0 | 0.00 | 0.00 | 0.00 | 100 | 1014.2 |
| 20260901171609 | 92 | 229 | 1.0 | 5.0 | 0.00 | 0.00 | 0.00 | 100 | 1014.1 |
| 20260901171053 | 92 | 228 | 1.0 | 5.0 | 0.00 | 0.00 | 0.00 | 100 | 1014.1 |
| 20260901170320 | 91 | 228 | 1.0 | 5.0 | 0.00 | 0.00 | 0.00 | 100 | 1014.2 |
| 20260901165819 | 91 | 227 | 0.0 | 4.0 | 0.00 | 0.00 | 0.00 | 100 | 1014.3 |
| 20260901165313 | 90 | 227 | 0.0 | 4.0 | 0.00 | 0.00 | 0.00 | 100 | 1014.5 |
| 20260901165051 | 90 | 227 | 0.0 | 3.0 | 0.00 | 0.00 | 0.00 | 100 | 1014.6 |
| 20260901164309 | 90 | 227 | 0.0 | 3.0 | 0.00 | 0.00 | 0.00 | 100 | 1014.6 |
| 20260901163805 | 89 | 227 | 0.0 | 3.0 | 0.00 | 0.00 | 0.00 | 100 | 1014.6 |
| 20260901163259 | 89 | 227 | 0.0 | 3.0 | 0.00 | 0.00 | 0.00 | 100 | 1014.7 |
| 20260901162747 | 89 | 227 | 0.0 | 4.0 | 0.00 | 0.00 | 0.00 | 100 | 1014.8 |
| 20260901162242 | 89 | 227 | 1.0 | 4.0 | 0.00 | 0.00 | 0.00 | 100 | 1014.8 |
| 20260901161736 | 89 | 227 | 1.0 | 4.0 | 0.00 | 0.00 | 0.00 | 100 | 1014.9 |
| 20260901161243 | 89 | 227 | 0.0 | 4.0 | 0.00 | 0.00 | 0.00 | 100 | 1015.0 |
| 20260901160749 | 89 | 227 | 0.0 | 4.0 | 0.00 | 0.00 | 0.00 | 100 | 1015.0 |
| 20260901160238 | 89 | 227 | 0.0 | 4.0 | 0.00 | 0.00 | 0.00 | 100 | 1015.0 |
| 20260901155733 | 89 | 227 | 0.0 | 4.0 | 0.00 | 0.00 | 0.00 | 100 | 1015.0 |
| 20260901155224 | 89 | 227 | 1.0 | 4.0 | 0.00 | 0.00 | 0.00 | 100 | 1015.0 |
| 20260901154945 | 89 | 227 | 1.0 | 4.0 | 0.00 | 0.00 | 0.00 | 100 | 1015.1 |
| 20260901154224 | 89 | 227 | 1.0 | 4.0 | 0.00 | 0.00 | 0.00 | 100 | 1015.2 |
| 20260901153943 | 89 | 227 | 0.0 | 3.0 | 0.00 | 0.00 | 0.00 | 100 | 1015.2 |
| 20260901153212 | 88 | 227 | 0.0 | 4.0 | 0.00 | 0.00 | 0.00 | 100 | 1015.2 |
| 20260901152948 | 88 | 227 | 0.0 | 4.0 | 0.00 | 0.00 | 0.00 | 100 | 1015.3 |
| 20260901152207 | 88 | 227 | 0.0 | 6.0 | 0.00 | 0.00 | 0.00 | 100 | 1015.2 |
| 20260901151944 | 88 | 227 | 1.0 | 7.0 | 0.00 | 0.00 | 0.00 | 100 | 1015.3 |
| 20260901151435 | 87 | 227 | 1.0 | 7.0 | 0.00 | 0.00 | 0.00 | 100 | 1015.3 |
| 20260901150653 | 87 | 227 | 1.0 | 4.0 | 0.00 | 0.00 | 0.00 | 100 | 1015.3 |
| 20260901150153 | 87 | 227 | 0.0 | 4.0 | 0.00 | 0.00 | 0.00 | 100 | 1015.4 |
| 20260901145913 | 87 | 227 | 0.0 | 6.0 | 0.00 | 0.00 | 0.00 | 100 | 1015.4 |
| 20260901145146 | 87 | 227 | 1.0 | 6.0 | 0.00 | 0.00 | 0.00 | 100 | 1015.4 |
| 20260901144642 | 87 | 228 | 1.0 | 6.0 | 0.00 | 0.00 | 0.00 | 100 | 1015.5 |
| 20260901144137 | 87 | 228 | 1.0 | 6.0 | 0.00 | 0.00 | 0.00 | 100 | 1015.5 |
| 20260901143635 | 87 | 228 | 0.0 | 4.0 | 0.00 | 0.00 | 0.00 | 100 | 1015.4 |
| 20260901143122 | 87 | 228 | 0.0 | 1.0 | 0.00 | 0.00 | 0.00 | 100 | 1015.4 |
| 20260901142617 | 86 | 228 | 1.0 | 6.0 | 0.00 | 0.00 | 0.00 | 100 | 1015.4 |
| 20260901142110 | 86 | 228 | 1.0 | 6.0 | 0.00 | 0.00 | 0.00 | 100 | 1015.4 |
| 20260901141828 | 86 | 227 | 1.0 | 7.0 | 0.00 | 0.00 | 0.00 | 100 | 1015.4 |
| 20260901141103 | 86 | 227 | 1.0 | 7.0 | 0.00 | 0.00 | 0.00 | 100 | 1015.3 |
| 20260901140826 | 86 | 225 | 1.0 | 6.0 | 0.00 | 0.00 | 0.00 | 100 | 1015.3 |
| 20260901140110 | 87 | 225 | 1.0 | 6.0 | 0.00 | 0.00 | 0.00 | 100 | 1015.4 |
| 20260901135533 | 87 | 220 | 1.0 | 7.0 | 0.00 | 0.00 | 0.00 | 100 | 1015.5 |
| 20260901135036 | 87 | 220 | 1.0 | 7.0 | 0.00 | 0.00 | 0.00 | 100 | 1015.5 |
| 20260901134533 | 87 | 194 | 1.0 | 5.0 | 0.00 | 0.00 | 0.00 | 100 | 1015.5 |
| 20260901134256 | 86 | 194 | 0.0 | 5.0 | 0.00 | 0.00 | 0.00 | 100 | 1015.4 |
| 20260901133524 | 85 | 182 | 0.0 | 2.0 | 0.00 | 0.00 | 0.00 | 100 | 1015.6 |
| 20260901133001 | 85 | 182 | 0.0 | 2.0 | 0.00 | 0.00 | 0.00 | 100 | 1015.5 |
| 20260901132504 | 84 | 182 | 0.0 | 0.0 | 0.00 | 0.00 | 0.00 | 100 | 1015.6 |
| 20260901131959 | 84 | 182 | 0.0 | 0.0 | 0.00 | 0.00 | 0.00 | 100 | 1015.6 |
| 20260901131449 | 84 | 182 | 0.0 | 2.0 | 0.00 | 0.00 | 0.00 | 100 | 1015.6 |
| 20260901131213 | 84 | 182 | 0.0 | 4.0 | 0.00 | 0.00 | 0.00 | 100 | 1015.6 |
| 20260901130703 | 83 | 182 | 0.0 | 4.0 | 0.00 | 0.00 | 0.00 | 100 | 1015.7 |
| 20260901125933 | 83 | 180 | 0.0 | 1.0 | 0.00 | 0.00 | 0.00 | 100 | 1015.7 |
| 20260901125912 | 83 | 180 | 0.0 | 1.0 | 0.00 | 0.00 | 0.00 | 100 | 1015.7 |
| 20260901125143 | 82 | 180 | 0.0 | 0.0 | 0.00 | 0.00 | 0.00 | 100 | 1015.8 |
| 20260901124409 | 82 | 180 | 0.0 | 4.0 | 0.00 | 0.00 | 0.00 | 100 | 1015.8 |
| 20260901123909 | 82 | 180 | 0.0 | 4.0 | 0.00 | 0.00 | 0.00 | 100 | 1015.8 |
| 20260901123402 | 81 | 180 | 0.0 | 4.0 | 0.00 | 0.00 | 0.00 | 100 | 1015.8 |
| 20260901122858 | 81 | 180 | 0.0 | 4.0 | 0.00 | 0.00 | 0.00 | 100 | 1015.8 |
| 20260901122620 | 80 | 180 | 0.0 | 2.0 | 0.00 | 0.00 | 0.00 | 100 | 1015.8 |
| 20260901121856 | 80 | 180 | 0.0 | 3.0 | 0.00 | 0.00 | 0.00 | 100 | 1015.8 |
| 20260901121340 | 80 | 180 | 0.0 | 3.0 | 0.00 | 0.00 | 0.00 | 100 | 1015.8 |
| 20260901120839 | 79 | 180 | 0.0 | 0.0 | 0.00 | 0.00 | 0.00 | 100 | 1015.8 |
| 20260901120336 | 79 | 179 | 0.0 | 0.0 | 0.00 | 0.00 | 0.00 | 100 | 1015.8 |
| 20260901115834 | 79 | 180 | 0.0 | 3.0 | 0.00 | 0.00 | 0.00 | 100 | 1015.8 |
| 20260901115332 | 79 | 180 | 0.0 | 3.0 | 0.00 | 0.00 | 0.00 | 100 | 1015.7 |
| 20260901115053 | 78 | 172 | 0.0 | 0.0 | 0.00 | 0.00 | 0.00 | 100 | 1015.7 |
| 20260901114325 | 78 | 172 | 0.0 | 1.0 | 0.00 | 0.00 | 0.00 | 100 | 1015.7 |
| 20260901113820 | 78 | 172 | 0.0 | 5.0 | 0.00 | 0.00 | 0.00 | 100 | 1015.7 |
| 20260901113302 | 78 | 168 | 0.0 | 2.0 | 0.00 | 0.00 | 0.00 | 100 | 1015.7 |
| 20260901112815 | 78 | 168 | 0.0 | 2.0 | 0.00 | 0.00 | 0.00 | 100 | 1015.6 |
| 20260901112253 | 78 | 168 | 0.0 | 0.0 | 0.00 | 0.00 | 0.00 | 100 | 1015.5 |
| 20260901111748 | 78 | 168 | 0.0 | 0.0 | 0.00 | 0.00 | 0.00 | 100 | 1015.4 |
| 20260901111243 | 78 | 168 | 0.0 | 0.0 | 0.00 | 0.00 | 0.00 | 100 | 1015.4 |
| 20260901110742 | 78 | 168 | 0.0 | 0.0 | 0.00 | 0.00 | 0.00 | 100 | 1015.4 |
| 20260901110223 | 78 | 168 | 0.0 | 0.0 | 0.00 | 0.00 | 0.00 | 100 | 1015.2 |
| 20260901105722 | 78 | 168 | 0.0 | 0.0 | 0.00 | 0.00 | 0.00 | 100 | 1015.1 |
| 20260901105431 | 78 | 168 | 0.0 | 0.0 | 0.00 | 0.00 | 0.00 | 100 | 1015.1 |
| 20260901104706 | 78 | 168 | 0.0 | 0.0 | 0.00 | 0.00 | 0.00 | 100 | 1015.0 |
| 20260901104203 | 78 | 168 | 0.0 | 0.0 | 0.00 | 0.00 | 0.00 | 100 | 1015.1 |
| 20260901104152 | 78 | 168 | 0.0 | 0.0 | 0.00 | 0.00 | 0.00 | 100 | 1015.0 |
| 20260901103143 | 78 | 169 | 0.0 | 0.0 | 0.00 | 0.00 | 0.00 | 100 | 1015.1 |
| 20260901102653 | 78 | 168 | 0.0 | 0.0 | 0.00 | 0.00 | 0.00 | 100 | 1015.2 |
| 20260901102642 | 78 | 168 | 0.0 | 0.0 | 0.00 | 0.00 | 0.00 | 100 | 1015.1 |
| 20260901101648 | 78 | 169 | 0.0 | 0.0 | 0.00 | 0.00 | 0.00 | 100 | 1015.3 |
| 20260901101141 | 78 | 168 | 0.0 | 0.0 | 0.00 | 0.00 | 0.00 | 100 | 1015.4 |
| 20260901100632 | 78 | 168 | 0.0 | 0.0 | 0.00 | 0.00 | 0.00 | 100 | 1015.3 |
| 20260901100130 | 78 | 169 | 0.0 | 0.0 | 0.00 | 0.00 | 0.00 | 100 | 1015.3 |
| 20260901095631 | 78 | 168 | 0.0 | 0.0 | 0.00 | 0.00 | 0.00 | 100 | 1015.3 |
| 20260901095128 | 78 | 168 | 0.0 | 0.0 | 0.00 | 0.00 | 0.00 | 100 | 1015.2 |
| 20260901094621 | 78 | 169 | 0.0 | 0.0 | 0.00 | 0.00 | 0.00 | 100 | 1015.2 |
| 20260901094123 | 78 | 168 | 0.0 | 0.0 | 0.00 | 0.00 | 0.00 | 100 | 1015.2 |
| 20260901093830 | 78 | 169 | 0.0 | 0.0 | 0.00 | 0.00 | 0.00 | 100 | 1015.2 |
| 20260901093333 | 79 | 169 | 0.0 | 0.0 | 0.00 | 0.00 | 0.00 | 100 | 1015.2 |